Weather History for Beaufort MCAS, SC

Change the Weather History Date:

Monday, March 12, 2012

  Actual Average Record
Temperature  
Mean Temperature 64 °F -  
Max Temperature 73 °F 71 °F 89 °F (1955)
Min Temperature 55 °F 48 °F 30 °F (1960)
Degree Days  
Heating Degree Days 2    
Growing Degree Days 14 (Base 50)    
Moisture  
Dew Point 54 °F    
Average Humidity 71    
Maximum Humidity 89    
Minimum Humidity 51    
Precipitation  
Precipitation 0.00 in - - ()
Sea Level Pressure  
Sea Level Pressure 30.36 in    
Wind  
Wind Speed 5 mph (SE)    
Max Wind Speed 9 mph    
Max Gust Speed -    
Visibility 10 miles    
Events      
Averages and records for this station are not official NWS values.
T = Trace of Precipitation, MM = Missing Value Source: NWS Daily Summary

Daily Weather History Graph

Daily Weather History Graph

Search for Another Location

Airport:

Trip Planner

Search our weather history database for the weather conditions in past years. The results will help you decide how hot, cold, wet, or windy it might be!

Date:

Astronomy

Mar. 12, 2012 Rise Set
Actual Time 7:36 AM EDT 7:29 PM EDT
Civil Twilight 7:11 AM EDT 7:53 PM EDT
Nautical Twilight 6:43 AM EDT 8:22 PM EDT
Astronomical Twilight 6:14 AM EDT 8:50 PM EDT
Moon No Moon Rise 10:16 AM EDT (3/12)
Length of Visible Light 12h 41m
Length of Day
11h 52m
Waning Gibbous, 76% of the Moon is Illuminated
Mar 12
Waning Gibbous
Mar 14
Last Quarter
Mar 22
New
Mar 30
First Quarter
Apr 6
Full

Hourly Weather History & Observations

Time (EDT) Temp. Dew Point Humidity Pressure Visibility Wind Dir Wind Speed Gust Speed Precip Events Conditions
12:56 AM 57.9 °F 53.1 °F 84% 30.42 in 10.0 mi East 8.1 mph - N/A   Clear
1:56 AM 57.9 °F 53.1 °F 84% 30.40 in 10.0 mi East 4.6 mph - N/A   Partly Cloudy
2:56 AM 57.9 °F 54.0 °F 87% 30.39 in 10.0 mi Calm Calm - N/A   Overcast
3:56 AM 59.0 °F 54.0 °F 83% 30.38 in 10.0 mi Calm Calm - N/A   Overcast
4:56 AM 57.0 °F 54.0 °F 89% 30.37 in 10.0 mi NE 3.5 mph - N/A   Overcast
5:56 AM 57.0 °F 53.1 °F 87% 30.38 in 10.0 mi Calm Calm - N/A   Overcast
6:56 AM 55.0 °F 52.0 °F 89% 30.38 in 10.0 mi North 3.5 mph - N/A   Scattered Clouds
7:56 AM 55.0 °F 52.0 °F 89% 30.39 in 10.0 mi NNE 3.5 mph - N/A   Mostly Cloudy
8:56 AM 59.0 °F 53.1 °F 81% 30.40 in 10.0 mi Calm Calm - N/A   Mostly Cloudy
9:56 AM 61.0 °F 53.1 °F 75% 30.40 in 10.0 mi East 5.8 mph - N/A   Mostly Cloudy
10:56 AM 66.9 °F 53.1 °F 61% 30.40 in 10.0 mi ESE 9.2 mph - N/A   Overcast
11:56 AM 69.1 °F 54.0 °F 58% 30.40 in 10.0 mi South 3.5 mph - N/A   Mostly Cloudy
12:56 PM 71.1 °F 54.0 °F 55% 30.38 in 10.0 mi Variable 6.9 mph - N/A   Mostly Cloudy
1:56 PM 71.1 °F 52.0 °F 51% 30.36 in 10.0 mi South 4.6 mph - N/A   Mostly Cloudy
2:56 PM 72.0 °F 53.1 °F 51% 30.34 in 10.0 mi South 8.1 mph - N/A   Mostly Cloudy
3:56 PM 72.0 °F 53.1 °F 51% 30.32 in 10.0 mi SSE 9.2 mph - N/A   Mostly Cloudy
4:56 PM 72.0 °F 54.0 °F 53% 30.31 in 10.0 mi SSE 8.1 mph - N/A   Partly Cloudy
5:56 PM 71.1 °F 54.0 °F 55% 30.30 in 10.0 mi South 6.9 mph - N/A   Mostly Cloudy
6:56 PM 66.9 °F 54.0 °F 63% 30.31 in 10.0 mi South 4.6 mph - N/A   Scattered Clouds
7:56 PM 64.9 °F 54.0 °F 68% 30.32 in 10.0 mi SSE 4.6 mph - N/A   Mostly Cloudy
8:56 PM 63.0 °F 54.0 °F 72% 30.32 in 10.0 mi Calm Calm - N/A   Mostly Cloudy
9:56 PM 62.1 °F 55.0 °F 78% 30.31 in 10.0 mi SSE 4.6 mph - N/A   Clear
10:56 PM 63.0 °F 55.0 °F 75% 30.30 in 10.0 mi SE 8.1 mph - N/A   Clear
11:56 PM 63.0 °F 55.0 °F 75% 30.30 in 10.0 mi Calm Calm - N/A   Clear